Location: Newark
(50.8086°N, 4.3114°E)
Time: 20:49:34
(UTC+00:00)

XW-2D - Pass Details

Date: 26 January 2020
Orbit: 507 x 528 km, 97.5° (Epoch: 22 February)

Event Time Altitude Azimuth Distance (km) Brightness Sun altitude
Rises 05:32:28 0° 16° (NNE) 2,634 ? -18.0°
Reaches altitude 10° 05:34:37 10° 21° (NNE) 1,740 ? -17.7°
Maximum altitude 05:38:18 55° 100° (E) 619 ? -17.1°
Drops below altitude 10° 05:41:56 10° 179° (S) 1,720 ? -16.5°
Sets 05:44:03 0° 184° (S) 2,600 ? -16.2°
